Photometre #944[NE_1.6] Marseille_ATMO AOT

File : 20220927_944.hum

27/09/2022,06:20:18,TEMP=15.4,BA=5.60,STAT.A=11.0,ExtBa=13.01
27/09/2022,06:23:51,TEMP=15.6,BA=5.60,STAT.A=11.0,ExtBa=12.82
27/09/2022,06:28:01,TEMP=15.6,BA=5.60,STAT.A=11.0,ExtBa=12.85
27/09/2022,06:32:58,TEMP=15.6,BA=5.60,STAT.A=11.0,ExtBa=12.93
27/09/2022,06:38:57,TEMP=15.6,BA=5.60,STAT.A=11.0,ExtBa=12.98
27/09/2022,06:46:19,TEMP=15.8,BA=5.60,STAT.A=11.0,ExtBa=13.01
27/09/2022,06:55:39,TEMP=16.6,BA=5.60,STAT.B=11.0,ExtBa=13.03
27/09/2022,07:04:45,TEMP=17.3,BA=5.60,STAT.A=11.0,ExtBa=12.75
27/09/2022,07:06:40,TEMP=17.5,BA=5.60,STAT.A=11.0,ExtBa=12.79
27/09/2022,07:10:46,TEMP=17.5,BA=5.60,STAT.A=11.0,ExtBa=12.88
27/09/2022,07:17:13,TEMP=17.7,BA=5.60,STAT.A=11.0,ExtBa=12.93
27/09/2022,07:24:37,TEMP=18.2,BA=5.60,STAT.C=11.0,ExtBa=12.96
27/09/2022,07:38:28,TEMP=19.0,BA=5.52,STAT.A=11.0,ExtBa=12.72
27/09/2022,07:43:28,TEMP=18.8,BA=5.60,STAT.A=11.0,ExtBa=12.87
27/09/2022,07:55:47,TEMP=19.1,BA=5.60,STAT.A=11.0,ExtBa=12.98
27/09/2022,08:11:00,TEMP=19.9,BA=5.60,STAT.A=11.5,ExtBa=13.02
27/09/2022,08:15:05,TEMP=20.1,BA=5.60,STAT.D=11.0,ExtBa=12.99
27/09/2022,08:30:07,TEMP=20.4,BA=5.60,STAT.F,ExtBa=13.02
27/09/2022,08:45:06,TEMP=20.7,BA=5.56,STAT.D=11.0,ExtBa=12.79
27/09/2022,09:00:06,TEMP=21.0,BA=5.60,STAT.D=11.5,ExtBa=13.00
27/09/2022,09:15:06,TEMP=21.4,BA=5.60,STAT.D=11.5,ExtBa=13.04
27/09/2022,09:30:08,TEMP=21.3,BA=5.60,STAT.F,ExtBa=13.01
27/09/2022,09:47:13,TEMP=21.7,BA=5.56,STAT.D=11.5,ExtBa=12.86
27/09/2022,10:00:06,TEMP=21.7,BA=5.60,STAT.D=11.5,ExtBa=12.95
27/09/2022,10:15:06,TEMP=21.4,BA=5.60,STAT.D=11.5,ExtBa=13.00
27/09/2022,10:30:08,TEMP=22.3,BA=5.60,STAT.F,ExtBa=12.99
27/09/2022,10:45:06,TEMP=22.9,BA=5.56,STAT.D=11.5,ExtBa=12.81
27/09/2022,11:00:06,TEMP=22.4,BA=5.56,STAT.D=11.5,ExtBa=12.97
27/09/2022,11:15:06,TEMP=23.1,BA=5.60,STAT.D=11.5,ExtBa=12.98
27/09/2022,11:30:08,TEMP=22.9,BA=5.60,STAT.F,ExtBa=12.98
27/09/2022,11:45:06,TEMP=23.0,BA=5.56,STAT.D=11.5,ExtBa=12.73
27/09/2022,12:00:06,TEMP=21.8,BA=5.60,STAT.D=11.5,ExtBa=12.96
27/09/2022,12:15:06,TEMP=21.3,BA=5.60,STAT.D=11.5,ExtBa=12.96
27/09/2022,12:30:08,TEMP=22.2,BA=5.60,STAT.F,ExtBa=12.96
27/09/2022,12:45:06,TEMP=23.3,BA=5.56,STAT.D=11.5,ExtBa=12.73
27/09/2022,13:00:06,TEMP=22.5,BA=5.56,STAT.D=11.5,ExtBa=12.93
27/09/2022,13:15:06,TEMP=24.4,BA=5.60,STAT.D=11.5,ExtBa=12.95
27/09/2022,13:30:08,TEMP=25.2,BA=5.60,STAT.F,ExtBa=12.98
27/09/2022,13:45:06,TEMP=25.1,BA=5.56,STAT.D=11.5,ExtBa=12.73
27/09/2022,14:00:06,TEMP=24.5,BA=5.56,STAT.D=11.5,ExtBa=12.93
27/09/2022,14:15:06,TEMP=25.6,BA=5.60,STAT.D=11.5,ExtBa=12.94
27/09/2022,14:30:07,TEMP=24.5,BA=5.60,STAT.F,ExtBa=12.96
27/09/2022,14:45:05,TEMP=22.9,BA=5.52,STAT.D=11.5,ExtBa=12.68
27/09/2022,14:49:13,TEMP=22.8,BA=5.52,STAT.A=11.5,ExtBa=12.76
27/09/2022,15:04:25,TEMP=23.1,BA=5.60,STAT.A=11.5,ExtBa=12.90
27/09/2022,15:16:44,TEMP=23.1,BA=5.60,STAT.A=11.5,ExtBa=12.93
27/09/2022,15:26:56,TEMP=23.0,BA=5.60,STAT.A=11.5,ExtBa=12.92
27/09/2022,15:35:35,TEMP=23.0,BA=5.60,STAT.C=11.5,ExtBa=12.93
27/09/2022,15:49:31,TEMP=22.8,BA=5.52,STAT.A=11.5,ExtBa=12.63
27/09/2022,15:51:26,TEMP=22.7,BA=5.56,STAT.A=11.5,ExtBa=12.66
27/09/2022,15:55:05,TEMP=22.4,BA=5.56,STAT.A=11.5,ExtBa=12.71
27/09/2022,16:00:05,TEMP=22.2,BA=5.56,STAT.A=11.5,ExtBa=12.77
27/09/2022,16:04:33,TEMP=22.0,BA=5.56,STAT.B=11.5,ExtBa=12.78
27/09/2022,16:13:53,TEMP=21.4,BA=5.52,STAT.A=11.5,ExtBa=12.61
27/09/2022,16:21:14,TEMP=20.6,BA=5.60,STAT.A=11.5,ExtBa=12.80
27/09/2022,16:27:12,TEMP=20.2,BA=5.60,STAT.A=11.5,ExtBa=12.81
27/09/2022,16:32:09,TEMP=20.0,BA=5.60,STAT.A=11.5,ExtBa=12.84
27/09/2022,16:40:56,TEMP=19.5,BA=5.60,STAT.A=11.5,ExtBa=12.87
27/09/2022,16:42:49,TEMP=19.7,BA=5.60,STAT.A=11.0,ExtBa=12.79